GFSGBSN_con_lsi_000.txt.gz
Lid_Strength_Index
1 1 1 1 1 1 1 1 1 1 1 1 2 2 2 2 2 2 1 1 1 0 0 -0 -0 -1 1 5 5 3 0 0 2 4 5 5 6 6 7 7 7 8 8 7 7 8 8
-0 0 1 2 2 1 1 1 1 1 1 1 2 2 2 2 2 2 2 2 1 1 0 0 -0 -0 3 8 3 3 4 4 4 4 5 5 6 6 7 7 8 8 8 8 7 7 8
0 0 1 1 2 2 2 2 2 2 2 1 2 2 2 3 2 2 2 2 2 1 1 0 0 1 4 6 3 4 4 4 4 4 5 5 5 6 6 7 7 8 10 9 8 8 9
0 0 0 0 1 1 1 2 2 2 2 3 3 3 4 3 3 3 2 2 2 1 1 1 0 2 7 3 4 4 4 5 4 4 4 5 5 5 6 7 8 10 10 12 9 8 9
0 0 0 0 0 1 1 1 1 2 2 2 3 3 4 3 3 3 3 3 3 2 2 2 3 4 7 3 5 4 4 5 5 5 5 5 5 7 7 10 11 10 13 12 10 8 9
0 0 0 0 0 0 1 1 1 1 2 2 3 3 3 3 3 3 3 3 2 3 2 2 4 7 7 7 5 4 5 5 6 6 6 7 7 10 10 11 14 13 13 11 12 10 10
-1 -1 -0 -0 -0 0 1 1 1 1 1 2 2 3 3 3 3 3 4 5 7 6 6 8 7 8 7 6 4 6 6 6 6 7 10 8 11 12 11 9 9 10 11 12 10 9 11
-0 -0 -0 -0 -0 0 0 1 1 0 1 2 2 3 3 2 3 3 4 7 7 7 11 8 8 7 7 6 8 7 6 9 9 11 9 11 12 10 9 9 11 11 12 12 11 10 11
0 0 1 1 1 1 1 1 1 1 1 2 2 3 3 3 3 3 5 7 5 6 11 10 9 9 9 8 9 9 8 9 10 11 11 12 11 9 10 11 11 12 13 13 12 11 12
0 1 1 1 1 2 2 2 2 2 2 2 2 2 3 3 5 5 6 6 5 5 14 12 11 9 9 8 12 9 8 9 10 12 11 12 10 10 11 12 11 13 11 11 12 14 16
1 1 1 1 2 2 2 2 2 2 2 3 3 3 2 2 5 6 6 6 5 7 19 11 12 8 9 11 11 12 11 11 13 13 12 13 13 13 12 12 10 12 12 13 13 14 15
2 2 2 2 2 2 2 2 2 3 3 3 3 3 3 4 4 5 5 5 6 14 20 13 11 12 12 11 12 12 12 11 12 13 13 13 12 12 12 12 12 12 13 14 15 16 19
3 3 3 3 3 3 2 2 2 2 2 3 3 3 4 4 6 5 6 7 14 18 12 13 13 12 12 12 12 13 14 15 15 17 16 14 14 13 12 14 13 13 15 19 19 20 19
3 4 4 4 3 3 3 3 3 2 2 2 3 3 4 4 5 5 7 11 18 13 13 11 12 12 13 12 12 13 14 15 14 14 15 16 17 14 13 13 13 15 14 18 21 20 18
4 3 4 4 3 3 4 4 3 4 3 3 3 4 5 4 6 6 10 17 14 11 9 10 11 14 14 13 13 13 14 14 12 13 15 16 15 14 13 12 12 15 17 14 17 21 20
4 4 4 4 4 4 4 4 4 4 4 4 4 5 5 4 5 7 13 15 13 8 8 10 13 12 14 13 14 14 14 13 12 11 11 13 15 13 15 14 14 14 14 18 17 23 24
5 5 5 5 5 5 4 4 4 4 4 4 4 7 5 5 4 9 15 15 11 8 8 10 11 12 13 14 13 13 14 12 12 12 11 13 14 15 15 17 16 17 17 16 16 16 21
5 6 6 6 6 5 5 5 4 4 4 3 4 9 6 4 10 10 13 11 10 10 8 10 11 12 13 13 14 13 13 12 10 11 13 12 13 16 15 13 15 14 15 15 17 18 19
6 6 6 6 6 6 6 5 5 5 4 5 6 6 4 4 12 12 11 10 9 9 9 9 10 10 9 12 14 13 12 11 10 11 13 12 16 18 18 14 15 16 15 14 14 15 17
5 6 6 6 6 6 6 6 5 5 4 4 6 10 7 6 6 10 11 11 11 8 9 8 9 8 10 12 11 13 12 10 10 10 9 9 13 15 17 15 13 16 16 16 15 15 17
5 5 4 4 5 5 5 5 5 4 4 4 6 8 7 11 10 9 9 10 11 11 8 8 10 10 11 13 12 12 11 12 11 10 10 10 15 15 13 12 13 14 14 14 15 15 17
4 5 5 5 4 4 5 4 4 4 3 6 8 8 6 8 8 9 10 11 11 10 9 10 11 10 9 12 11 12 11 11 11 11 11 10 15 15 16 15 14 16 14 14 14 14 14
4 4 4 4 3 4 3 3 4 4 3 6 5 5 8 9 9 10 10 10 10 9 8 8 9 10 11 9 8 7 7 7 8 10 11 12 13 15 17 14 15 17 15 14 13 12 13
3 3 3 3 3 3 3 3 3 3 3 4 5 6 8 13 11 11 9 9 10 9 10 9 9 10 8 6 7 7 8 9 9 9 8 12 13 14 17 15 21 14 11 11 12 12 11
3 3 3 3 3 3 3 3 3 2 2 4 4 6 9 13 11 11 10 10 10 10 10 9 8 6 6 8 11 13 13 13 12 10 10 9 12 16 18 18 15 13 11 12 12 13 10
2 3 3 3 3 3 3 3 3 2 2 4 4 4 7 11 13 10 11 10 12 12 12 10 7 7 7 9 12 16 17 14 16 14 10 10 10 14 16 19 21 13 9 8 8 15 9
2 2 2 2 2 2 2 3 3 3 2 4 5 3 6 10 9 9 12 12 9 10 12 11 13 12 8 11 14 15 16 12 16 16 15 14 14 16 16 18 16 11 9 9 16 14 8
1 2 2 2 2 2 2 2 2 2 2 3 5 3 6 8 9 8 8 11 11 10 13 12 13 12 12 14 14 14 14 13 14 12 13 15 16 16 15 17 19 9 10 13 10 8 9
1 1 2 2 2 2 2 2 2 2 2 2 6 3 3 7 8 5 6 5 6 7 9 12 13 16 12 14 14 13 16 14 15 18 12 16 15 18 16 15 11 10 12 12 9 12 11

GFSGBSN_con_lsi_003.txt.gz
Lid_Strength_Index
0 1 1 1 1 1 1 1 1 1 1 1 1 1 2 2 2 1 1 1 1 1 1 0 0 0 3 7 7 3 -0 0 3 4 6 7 8 8 10 9 9 10 9 8 8 8 9
0 -0 1 1 1 1 1 1 1 1 1 1 1 2 2 2 2 2 2 2 2 2 1 1 1 1 7 11 5 4 5 4 5 6 7 7 7 7 9 9 10 10 9 9 9 8 9
0 0 0 0 1 1 1 2 2 2 1 2 2 2 2 2 2 2 2 2 2 2 2 2 1 2 7 9 5 6 5 6 6 6 7 7 6 8 8 9 8 9 11 10 9 9 10
0 0 0 0 1 1 1 2 2 2 2 3 3 3 3 3 3 3 3 3 3 2 2 1 1 4 10 5 7 6 6 7 6 6 6 6 6 7 8 8 9 12 12 14 11 10 10
-0 0 1 1 1 1 1 1 1 2 2 2 3 3 3 3 3 3 3 3 3 2 2 2 5 7 10 4 7 6 6 7 7 7 7 6 6 9 9 12 14 14 15 14 12 10 10
-1 -0 0 0 1 1 1 1 1 1 2 2 2 3 3 3 3 3 2 2 3 3 3 2 4 10 9 9 7 7 8 7 7 8 8 8 10 12 12 14 16 16 15 14 14 12 12
-0 -0 -0 0 1 1 1 1 1 1 2 2 2 3 3 2 2 2 3 6 10 10 7 11 10 10 9 8 7 8 8 8 8 9 12 10 13 14 12 12 12 13 14 15 12 10 11
0 0 0 0 1 0 0 1 1 0 1 1 2 2 2 2 2 2 5 8 8 9 12 9 10 9 8 7 10 9 8 10 11 13 12 13 15 12 11 11 12 13 14 14 12 12 12
1 1 1 1 1 1 2 2 1 1 1 1 2 2 2 2 3 4 7 8 6 7 12 11 10 11 10 8 11 11 9 11 12 14 13 14 13 11 11 12 13 13 14 14 14 12 13
1 0 0 0 1 1 2 2 2 2 2 2 2 2 3 3 5 6 8 7 6 7 17 14 12 10 10 10 13 11 10 10 12 13 13 14 11 12 13 14 12 15 12 12 14 15 17
2 2 1 1 2 2 2 2 2 2 3 3 3 3 3 4 8 8 7 6 6 10 21 13 13 9 10 13 13 13 12 13 14 14 14 14 15 14 14 13 12 14 13 14 15 16 17
2 2 3 3 3 3 3 3 2 2 2 3 3 3 3 5 6 6 6 7 8 16 21 14 12 13 13 12 13 13 13 12 13 14 14 15 14 14 13 14 13 14 15 16 17 18 20
3 3 4 4 3 3 3 3 3 2 2 3 3 3 4 4 7 6 6 8 15 20 14 14 14 13 14 14 14 14 15 16 17 18 18 16 15 14 13 15 15 15 17 21 22 23 20
4 5 5 4 4 4 4 4 4 3 3 2 2 3 4 4 5 5 7 11 18 13 15 12 13 14 15 13 14 14 16 17 15 15 17 18 17 15 14 13 15 16 15 20 24 22 18
4 5 5 5 5 5 5 5 5 4 4 3 2 3 4 4 5 6 9 16 15 13 10 10 10 13 15 14 14 15 17 17 14 13 16 17 16 15 14 14 13 16 17 13 18 24 22
5 5 5 5 5 5 4 5 4 4 3 3 3 4 5 4 5 8 12 13 13 10 9 9 13 12 14 13 13 14 15 14 14 13 11 13 16 14 15 15 15 15 15 18 18 23 24
5 6 5 6 6 5 5 5 4 5 3 2 3 6 5 4 4 9 14 13 11 9 9 10 11 12 12 13 12 12 13 12 13 12 12 13 14 15 16 16 16 16 17 16 16 17 19
6 6 6 6 6 6 6 5 5 5 3 2 4 9 4 3 9 10 11 11 9 9 8 9 9 10 11 11 12 12 13 11 9 10 12 12 14 17 16 14 14 14 15 15 17 19 18
5 6 6 5 6 6 6 6 5 5 4 5 6 7 4 4 12 11 9 9 8 9 9 9 10 9 9 11 14 12 11 9 8 9 11 11 15 18 16 14 15 14 14 13 13 16 17
4 5 5 5 5 5 5 6 5 5 4 5 6 10 7 6 6 10 10 10 11 7 8 8 9 8 10 12 10 12 11 9 8 8 8 8 13 15 17 14 14 16 15 14 14 16 15
4 4 4 4 4 4 4 5 5 5 4 5 8 10 8 11 10 9 9 10 11 11 8 8 10 10 11 13 12 12 11 10 9 8 9 9 15 14 13 13 13 13 14 13 14 13 16
3 4 4 4 4 4 4 4 4 4 4 7 10 10 8 8 8 9 9 11 11 10 10 10 11 9 9 12 11 13 11 11 11 10 10 9 14 13 15 13 13 15 12 12 13 14 13
3 4 4 3 4 3 3 4 4 3 4 8 7 7 8 11 11 10 10 9 9 9 8 8 9 10 11 10 8 9 10 9 9 11 12 12 13 15 18 14 14 17 14 13 12 11 12
3 3 3 3 3 3 3 3 3 3 3 6 7 7 9 13 11 11 10 9 9 9 10 9 9 10 8 6 7 7 9 9 9 9 9 12 14 14 17 15 21 14 10 10 12 10 10
2 2 2 2 3 3 3 3 3 3 3 6 6 7 9 14 12 12 11 11 11 10 11 10 9 7 7 8 11 12 13 11 11 10 10 10 12 16 18 18 15 13 11 11 12 13 9
2 2 2 2 2 2 2 2 3 3 3 6 7 5 8 12 15 11 12 11 16 16 15 12 9 9 8 11 16 19 18 15 15 13 11 10 10 14 15 19 20 12 10 8 9 15 13
1 1 1 1 1 1 2 2 2 2 2 5 7 5 7 11 11 11 13 13 11 13 17 16 15 14 11 15 18 18 18 13 17 16 14 13 14 16 16 18 16 12 11 9 17 17 13
1 0 0 0 0 1 1 1 1 1 1 3 6 4 6 9 10 9 9 12 11 13 18 17 16 16 16 18 20 16 18 15 16 15 15 15 16 16 14 17 18 10 11 16 15 12 13
1 1 0 0 0 0 1 1 1 1 1 1 7 4 3 7 9 7 6 6 7 8 12 15 14 18 14 18 21 20 20 18 18 20 12 17 14 17 16 16 13 11 13 13 11 13 14

GFSGBSN_con_lsi_006.txt.gz
Lid_Strength_Index
-0 0 1 0 0 0 0 0 1 1 1 1 1 1 2 2 2 1 1 1 1 1 1 1 1 0 4 9 8 3 -1 -1 2 4 7 7 8 9 10 10 10 10 10 8 8 9 9
-0 0 0 1 0 1 1 1 1 1 1 1 1 2 2 2 2 2 2 2 2 1 1 1 1 1 8 12 6 4 5 4 5 7 7 7 8 8 9 10 10 11 10 10 9 9 9
0 -0 -0 -0 0 0 1 1 1 1 1 1 1 2 2 2 2 2 2 2 2 2 2 2 2 2 7 10 6 6 6 6 7 7 8 8 8 8 10 10 9 10 11 11 10 10 10
0 0 0 0 0 1 1 1 1 1 1 2 3 3 3 3 3 3 2 2 2 2 3 2 2 5 11 6 7 7 7 8 8 8 8 8 8 9 9 9 11 13 13 14 12 11 10
-1 -0 0 1 1 1 1 1 1 1 2 2 3 3 3 3 3 3 3 3 3 3 2 2 5 8 11 5 8 7 7 8 8 8 8 7 8 10 10 13 15 15 16 15 13 11 11
-1 -1 -1 -0 0 1 1 1 1 2 2 2 3 3 3 3 3 3 2 2 3 3 3 2 4 10 9 9 7 8 9 8 9 9 10 10 11 13 13 15 17 16 17 15 15 13 13
0 0 -0 -0 -0 -0 1 1 1 2 2 2 2 3 3 3 2 2 4 7 10 11 8 11 11 11 9 8 7 9 8 9 9 11 14 12 15 16 13 13 12 16 16 16 14 12 13
1 1 1 1 1 1 1 1 1 1 1 2 2 2 2 2 2 2 6 8 9 9 12 9 9 9 8 8 10 9 8 11 11 14 13 14 16 13 12 13 14 14 15 15 13 12 14
1 1 1 1 1 2 1 1 1 1 1 2 2 2 2 2 2 5 8 8 6 7 13 12 10 11 10 8 11 10 9 11 13 14 14 14 13 12 13 14 15 15 15 15 15 14 15
1 1 1 1 1 2 2 2 2 2 2 2 2 2 3 3 5 7 9 7 7 8 18 15 13 11 10 10 13 11 11 12 13 14 14 15 12 13 14 14 13 15 13 14 15 17 18
2 2 3 3 3 3 3 3 2 2 2 2 2 2 3 4 7 8 7 7 8 11 21 14 13 9 10 13 13 13 12 12 15 14 14 15 15 15 15 14 13 14 14 15 16 18 18
3 3 3 3 3 3 3 3 2 2 2 3 3 3 3 5 7 7 7 8 10 16 21 15 13 13 14 13 13 13 13 13 14 15 15 14 14 14 14 14 14 14 16 16 18 18 20
4 4 4 4 4 4 4 4 3 3 3 3 3 3 4 5 7 6 7 8 13 17 13 15 15 14 15 15 14 15 15 16 16 18 19 17 16 15 14 15 15 15 16 21 22 23 21
4 5 5 5 5 5 5 5 4 4 4 3 3 2 4 4 5 6 6 9 17 13 14 12 12 14 15 14 14 15 16 17 16 16 18 19 18 16 14 14 16 16 15 18 23 22 18
4 4 5 5 6 6 6 5 5 5 4 4 3 3 4 4 5 5 8 15 14 12 10 11 11 13 14 15 14 15 17 17 15 15 16 18 17 15 14 14 14 17 18 14 18 26 23
5 5 5 5 5 5 5 5 6 5 4 4 4 5 5 4 5 6 11 13 12 10 9 9 13 12 15 14 13 14 15 14 14 14 13 15 17 14 16 15 15 15 14 18 19 21 24
6 6 6 6 6 6 6 5 5 5 5 3 4 6 5 3 4 8 13 12 10 9 8 10 11 12 12 13 12 13 12 13 12 14 12 13 14 15 16 16 15 16 16 16 15 16 18
6 6 7 7 6 7 6 6 5 5 4 4 5 9 3 2 9 9 11 9 8 8 7 8 9 10 11 11 12 12 13 11 9 10 11 11 13 16 15 13 14 14 14 13 16 17 18
5 5 5 5 5 6 6 6 5 5 4 5 6 7 3 3 12 11 9 9 8 9 9 9 10 9 9 11 14 11 11 8 7 8 11 10 14 17 16 13 13 16 14 14 14 14 16
5 4 4 4 4 4 4 5 5 5 5 5 7 10 6 5 6 9 10 11 11 7 8 8 9 8 10 11 10 12 11 9 8 8 7 8 12 15 17 14 12 14 14 15 14 16 16
4 4 4 4 5 5 4 4 5 5 5 5 8 11 8 11 10 9 9 10 11 11 8 7 10 10 11 13 12 12 10 10 8 7 8 10 15 14 13 12 12 12 12 12 13 13 15
3 3 3 3 3 3 3 3 4 4 4 8 10 10 9 9 9 9 9 10 11 10 9 10 11 9 9 12 11 13 11 12 12 10 10 10 15 13 15 13 13 14 12 12 12 12 12
3 3 3 3 3 3 3 3 3 3 4 9 8 7 8 11 12 13 11 10 10 9 8 8 9 10 10 9 9 9 8 8 9 10 11 11 13 15 17 14 14 17 14 13 12 11 12
2 3 3 3 3 3 3 3 2 3 3 7 8 7 9 14 12 12 11 11 11 11 10 9 9 10 9 8 8 10 10 9 10 10 8 12 12 13 16 15 21 13 10 10 12 11 10
2 2 1 2 2 2 2 3 3 2 3 5 7 8 9 15 12 13 12 12 12 12 11 11 10 8 8 11 14 20 17 18 14 11 11 10 11 15 17 17 14 12 12 13 14 13 14
2 2 2 2 1 1 1 1 2 2 2 6 6 5 7 12 15 11 13 12 16 16 15 12 10 10 10 13 19 23 25 20 20 15 12 11 11 13 15 19 20 16 14 13 12 16 15
2 2 1 1 1 1 1 1 1 0 0 3 6 4 7 11 10 11 13 13 11 13 18 18 16 15 12 16 28 27 25 15 21 22 21 22 21 19 17 18 15 13 11 11 17 19 14
1 1 1 1 1 -0 -0 -0 -0 -0 -0 1 4 3 5 8 9 9 9 11 11 13 18 17 16 17 16 18 23 17 20 15 18 16 17 18 19 20 18 22 20 12 13 17 14 12 12
1 1 1 0 0 -0 -0 -0 -0 -0 0 0 5 3 2 7 9 6 6 6 6 8 11 15 14 19 14 19 22 22 24 23 22 26 15 20 16 20 17 17 12 11 11 11 9 13 13

GFSGBSN_con_lsi_009.txt.gz
Lid_Strength_Index
-0 -0 0 0 0 0 0 0 1 1 1 1 1 1 2 2 1 1 1 1 1 1 1 1 1 0 5 10 9 4 -1 -1 3 5 7 8 9 9 11 11 10 11 10 9 9 9 9
-0 -0 -0 0 0 1 1 1 1 0 1 1 1 1 1 1 1 1 1 1 1 1 1 1 1 1 9 13 8 4 4 4 6 7 8 9 9 9 11 11 11 11 10 10 10 10 9
-0 -0 0 -0 -0 0 1 1 1 1 1 1 2 2 2 2 2 2 1 1 1 1 2 1 1 2 8 11 7 6 6 7 7 8 9 9 9 10 11 12 11 11 12 12 11 11 10
0 0 0 0 0 1 1 1 1 1 1 1 2 2 2 2 2 2 2 2 2 2 2 2 2 6 13 7 8 8 8 8 8 8 8 9 9 10 11 11 12 14 14 16 12 12 12
-0 -0 0 1 1 1 1 1 1 1 1 2 2 2 2 2 2 2 2 2 3 3 3 2 6 9 12 5 8 8 8 9 9 9 9 7 9 11 12 14 16 17 18 17 15 12 12
-1 -1 -1 -0 0 0 1 1 1 2 2 2 2 3 3 3 3 3 3 3 3 4 3 3 5 12 11 10 8 8 9 8 10 10 10 11 12 14 15 16 18 17 19 17 17 14 14
0 1 -0 -0 0 0 0 0 1 1 1 2 2 2 2 3 2 2 4 8 11 12 9 11 11 12 11 8 7 9 8 8 9 11 14 13 15 16 14 14 13 17 17 18 16 13 15
0 -0 0 1 1 1 1 1 1 1 1 1 2 2 2 2 2 3 8 9 11 10 13 10 10 10 9 8 11 9 8 10 11 13 13 15 16 13 13 14 15 16 16 16 14 13 16
0 1 1 1 1 1 2 2 2 2 2 2 2 2 2 2 3 6 9 10 7 8 14 12 11 12 11 9 11 11 9 11 13 14 14 14 14 12 14 15 15 16 16 15 16 15 16
0 0 1 1 1 1 2 2 2 2 3 3 3 3 2 2 5 7 9 7 7 8 17 15 13 12 11 11 13 12 11 12 13 14 15 15 13 14 15 16 14 16 14 15 16 18 18
2 2 2 3 3 3 3 3 3 3 3 3 3 3 3 3 6 7 7 7 8 12 19 13 14 10 11 14 14 14 12 12 14 14 15 16 15 16 16 14 14 15 15 16 17 19 19
2 3 3 3 3 3 3 3 3 3 3 3 3 3 3 4 6 6 7 8 10 15 19 15 14 14 14 14 14 14 14 13 14 16 15 15 15 14 14 14 14 14 16 17 18 19 21
3 3 4 4 4 4 4 4 4 4 4 4 3 3 4 4 5 5 7 8 13 17 13 15 16 15 16 16 15 15 16 16 17 19 19 18 16 15 14 16 16 16 17 21 23 23 21
4 5 5 4 5 5 5 5 5 5 4 4 4 3 4 4 5 5 6 9 17 13 13 12 13 15 14 14 13 15 17 17 16 17 19 19 17 16 14 15 16 17 17 20 24 22 18
5 5 6 6 6 6 6 6 6 6 6 5 4 3 4 3 5 4 6 14 14 12 11 11 11 14 14 14 13 15 17 17 15 15 16 18 18 16 15 14 14 17 18 15 18 23 22
5 5 6 7 6 6 6 6 5 5 4 4 7 4 5 3 4 5 9 13 12 10 10 10 14 12 15 15 12 14 14 15 14 14 13 14 17 15 16 15 15 15 14 18 19 22 22
5 5 6 6 6 6 6 6 5 5 4 4 5 7 5 3 2 6 13 12 11 9 8 10 11 12 13 13 12 12 12 12 12 13 12 12 13 15 14 16 13 16 16 16 16 17 18
5 5 6 5 5 6 6 6 6 6 5 4 5 10 4 2 9 9 11 9 8 8 7 8 9 10 11 11 12 13 13 11 8 9 11 9 12 16 14 13 12 13 14 14 16 17 15
5 5 5 5 5 5 5 5 5 5 4 5 7 8 2 3 12 11 9 9 8 9 9 9 10 9 9 11 14 11 10 7 7 9 11 10 14 17 16 14 14 13 12 11 11 13 16
5 5 5 5 5 5 4 4 5 5 5 6 8 11 6 5 6 9 10 10 11 7 9 8 9 8 10 11 10 12 12 9 8 8 7 8 12 15 18 16 12 14 12 12 12 16 15
5 5 5 4 5 5 5 4 4 5 5 7 9 11 8 13 9 9 9 10 11 11 8 8 10 10 11 13 12 13 11 10 9 8 8 10 15 13 13 12 13 14 14 13 14 12 15
4 4 3 4 4 3 4 4 3 4 3 9 10 11 9 11 9 9 9 10 11 10 9 10 10 9 9 12 12 13 11 11 11 11 11 10 15 13 14 13 12 14 13 13 13 13 14
3 3 3 3 3 3 3 3 3 3 4 10 9 8 8 11 12 12 12 10 9 9 8 8 9 10 11 10 10 10 10 9 9 11 12 12 12 14 17 14 14 16 14 12 12 11 13
2 2 2 2 2 3 3 2 2 2 3 7 9 9 10 14 12 13 12 12 12 12 12 10 9 10 9 8 8 9 10 10 10 10 9 12 14 14 17 16 22 15 11 11 12 15 14
2 2 2 1 1 2 2 2 2 2 2 7 7 8 11 16 12 12 12 12 12 12 12 12 10 9 9 11 13 17 20 19 15 12 12 10 12 17 22 23 16 14 14 15 16 16 13
2 2 2 2 2 2 1 1 1 2 2 5 6 6 7 14 15 11 12 12 14 16 15 12 11 11 11 14 20 25 25 22 21 17 13 13 11 14 24 22 23 15 14 11 12 16 12
2 2 3 3 2 2 1 1 1 0 0 2 4 4 6 10 10 10 12 12 10 12 17 17 16 14 12 17 29 27 25 15 22 23 22 25 25 25 27 26 21 16 14 12 22 19 13
2 2 2 2 2 2 1 1 -0 -1 -1 1 3 2 5 8 8 8 8 10 10 12 17 16 15 17 16 19 24 17 22 17 19 16 17 20 25 27 28 29 25 13 14 17 15 12 11
1 1 1 1 1 0 -0 -0 -0 -1 -1 -1 4 2 2 6 7 7 6 5 6 7 10 15 12 18 13 18 21 21 24 23 22 26 14 21 18 22 19 20 12 11 12 10 10 11 11

GFSGBSN_con_lsi_012.txt.gz
Lid_Strength_Index
-0 -0 1 1 1 0 0 0 0 1 1 1 1 1 1 1 1 1 1 1 1 1 1 1 1 1 6 11 10 4 -1 -1 4 6 7 9 10 11 12 12 12 12 11 10 9 10 10
-1 -0 0 0 0 0 0 0 0 0 0 1 1 1 1 1 1 1 1 1 1 1 1 1 1 1 9 13 8 3 3 5 7 8 9 9 10 10 12 12 12 13 12 11 11 10 10
-0 -0 -0 -0 -0 -0 0 0 0 0 1 1 1 1 2 2 1 1 1 1 1 1 1 1 2 3 9 10 7 5 6 7 8 8 10 9 9 10 11 13 12 12 13 13 13 12 12
0 0 0 -0 0 1 1 1 1 1 1 1 1 2 2 1 1 1 1 1 1 2 2 2 2 6 13 8 8 8 8 9 9 9 9 9 9 10 12 12 13 15 15 17 15 13 13
-1 -0 0 0 1 1 1 1 1 1 1 2 2 2 2 2 2 2 2 1 2 1 2 2 6 11 13 6 9 8 8 9 9 9 9 7 10 12 13 15 16 17 18 18 16 13 14
-0 -1 -1 -0 0 0 1 1 1 2 2 2 2 2 2 2 2 2 2 3 3 4 3 3 6 13 11 12 9 9 9 8 10 10 10 11 12 14 15 16 19 18 19 18 18 14 15
0 -0 -0 -0 -0 -0 0 0 1 1 1 2 2 2 2 2 2 2 6 9 11 12 10 12 11 13 12 9 8 10 9 9 10 12 14 13 15 16 14 14 15 17 18 18 16 14 16
0 0 0 0 1 1 1 1 1 1 1 1 1 1 2 2 2 3 8 10 11 10 13 11 11 10 9 9 11 10 9 11 12 14 14 15 17 13 14 15 15 16 16 16 15 14 16
0 0 0 0 0 0 0 1 1 1 1 2 2 2 2 2 3 6 9 11 8 8 14 12 11 12 11 9 11 11 10 12 14 15 15 15 14 13 14 15 16 17 18 16 17 16 16
-0 0 1 0 1 1 1 2 2 2 2 3 3 3 3 3 6 9 10 8 8 9 15 14 14 12 11 11 13 12 12 13 14 15 15 16 14 14 15 16 15 16 15 15 16 18 20
1 2 2 2 3 3 3 3 3 3 3 3 3 3 3 4 8 8 8 8 9 12 20 13 14 10 11 14 14 14 13 13 16 15 16 16 16 16 16 15 15 16 15 16 17 19 20
2 3 3 3 3 3 3 4 3 4 4 4 3 3 3 5 7 7 8 8 11 14 19 14 14 15 15 14 14 14 14 14 15 16 16 16 15 15 14 15 14 15 16 17 19 19 21
3 4 4 4 4 4 4 4 4 4 4 4 4 3 4 4 6 6 7 8 13 17 12 14 16 15 16 16 15 15 16 16 17 19 19 18 17 16 15 17 16 16 18 21 23 24 21
4 5 5 5 5 5 5 5 5 5 5 5 5 4 3 4 5 5 5 9 17 14 13 12 13 14 15 14 14 15 16 17 16 18 19 19 17 16 15 15 16 17 17 20 23 23 18
5 6 6 6 6 7 7 7 7 6 6 5 5 5 4 3 3 4 6 14 14 14 12 11 11 13 14 14 12 15 16 17 15 15 15 18 18 17 15 15 15 18 18 15 17 20 22
6 6 7 7 7 7 7 7 7 6 5 5 8 6 6 2 3 4 9 13 11 10 10 10 14 11 15 15 14 15 15 15 15 14 14 14 16 14 15 15 15 15 14 18 18 20 22
6 6 6 8 6 6 6 7 7 6 6 5 6 9 6 3 2 6 13 12 10 7 7 10 12 12 12 13 12 12 13 11 13 13 12 11 13 15 14 17 15 15 16 16 15 16 20
6 6 6 7 6 5 6 6 6 5 4 5 6 11 4 2 8 8 11 9 7 8 7 8 9 10 11 11 12 12 12 10 8 9 11 9 13 16 14 12 13 14 12 13 16 17 17
6 5 5 5 5 5 5 6 6 5 5 6 8 9 3 2 12 11 9 9 8 9 9 9 10 9 9 11 14 12 11 8 8 9 11 10 14 18 17 14 13 14 12 12 12 13 17
6 5 5 5 5 5 5 5 6 6 5 6 8 13 7 5 6 9 10 10 10 7 8 8 9 8 10 11 10 12 11 9 8 8 7 8 13 15 18 15 12 15 13 12 13 17 17
6 5 5 5 5 5 5 5 5 5 5 8 11 13 10 11 11 9 9 9 11 11 9 7 10 10 11 13 12 13 11 10 10 8 9 10 15 13 13 13 13 13 14 13 14 13 16
5 4 4 5 4 5 4 5 5 4 4 10 13 12 11 11 10 10 11 10 10 10 9 10 10 9 9 12 12 13 11 11 11 10 10 9 14 13 15 13 14 14 13 13 14 14 13
4 4 4 4 3 4 4 4 4 3 5 11 11 10 9 12 12 13 13 12 11 11 9 9 10 10 10 10 10 10 10 10 10 12 12 12 13 15 17 14 15 17 15 13 12 11 13
2 3 3 3 3 3 3 3 3 3 3 9 10 10 14 16 13 13 12 12 13 12 13 11 11 11 9 8 9 10 10 11 11 11 10 12 13 14 16 17 21 15 12 13 14 13 14
2 2 2 2 2 2 2 2 2 2 2 6 8 9 13 18 13 13 13 13 13 13 13 12 12 10 9 11 15 21 21 19 14 13 13 11 13 19 21 25 18 15 15 16 16 16 14
2 2 2 2 2 2 2 2 2 2 2 6 6 6 8 15 15 12 13 13 15 17 15 12 11 11 10 13 20 25 25 22 22 18 13 13 12 15 23 22 28 17 16 14 13 19 16
2 2 2 2 2 2 2 2 1 1 1 3 5 5 7 11 11 11 13 13 11 12 17 17 15 14 11 16 28 25 24 16 22 24 22 26 27 20 23 25 23 17 14 13 23 21 17
2 2 2 2 2 2 3 2 2 1 1 2 4 4 6 8 9 9 8 10 10 12 16 16 15 16 16 21 24 18 22 17 19 17 17 19 25 28 29 28 26 13 14 18 15 12 13
2 2 2 2 2 2 2 2 2 2 1 0 4 2 2 5 7 7 6 6 6 7 10 16 13 18 13 18 20 20 23 23 21 24 14 21 18 22 20 20 13 11 12 10 10 12 12

GFSGBSN_con_lsi_015.txt.gz
Lid_Strength_Index
-0 0 1 0 0 -0 -0 0 0 0 0 1 1 1 1 1 1 0 1 1 0 0 1 1 1 1 6 12 10 3 -1 -1 5 6 7 9 10 10 11 11 11 11 11 10 10 10 10
-1 -0 0 0 0 -0 0 0 0 0 0 1 1 1 1 1 1 1 1 0 0 0 1 1 1 1 10 13 8 2 2 5 6 7 9 9 10 10 11 12 11 12 11 11 11 11 11
-0 -0 -1 -0 -0 0 -0 0 0 0 0 1 1 1 1 1 1 1 1 1 1 1 1 1 2 3 11 10 7 4 5 7 7 8 10 9 9 10 11 12 12 12 13 13 13 12 12
-0 -0 -0 -0 0 0 1 1 1 1 1 1 1 2 2 1 1 1 1 1 1 1 1 1 1 6 13 8 7 7 8 9 9 9 9 9 9 10 11 11 12 14 15 16 13 13 13
-1 -0 -0 0 0 1 1 1 1 1 1 2 2 2 2 2 2 2 1 2 2 1 1 1 7 11 13 6 9 9 9 10 9 9 9 8 9 11 12 14 15 16 17 17 15 13 13
-0 -0 -0 -0 -0 0 1 1 1 1 2 2 2 2 2 2 2 2 2 4 3 4 3 3 6 13 11 12 9 9 10 9 10 10 10 11 13 14 15 15 18 17 18 17 17 14 15
0 0 0 0 0 0 0 0 0 1 1 2 2 2 2 2 2 2 6 10 10 11 11 12 11 12 12 10 9 10 9 9 10 12 14 13 15 16 14 14 15 16 17 18 16 14 15
1 0 0 1 1 1 1 1 1 1 1 1 2 2 1 1 1 2 8 10 11 10 13 10 11 11 10 10 11 11 9 11 12 14 14 15 17 14 14 14 15 16 17 16 15 14 16
1 1 1 1 1 1 1 1 1 1 1 1 2 2 2 2 3 7 10 11 8 9 15 12 12 12 12 10 12 11 10 12 13 15 15 15 15 13 14 16 16 17 17 16 17 16 15
1 1 1 1 1 1 2 2 2 2 2 2 2 2 2 3 6 8 10 9 9 11 16 14 15 14 12 12 14 12 11 12 14 15 15 16 14 14 16 16 15 17 15 15 16 17 19
1 1 1 2 2 3 3 3 3 3 3 3 3 3 3 4 7 8 9 9 9 12 20 13 15 12 12 15 15 14 13 13 16 15 15 16 16 16 16 15 15 16 15 16 17 18 19
2 2 2 3 3 3 3 4 4 4 4 4 4 3 3 5 6 7 8 8 10 13 19 14 15 15 15 15 15 14 14 13 14 16 16 16 15 15 15 15 15 15 16 17 18 18 21
2 3 3 4 4 4 4 4 5 5 5 5 5 4 4 4 6 7 7 7 13 17 11 14 15 15 16 16 15 15 15 16 16 18 18 17 16 16 15 17 16 15 17 20 21 23 21
3 4 4 4 4 5 5 6 6 6 6 6 6 4 4 3 5 6 6 9 17 13 13 12 13 14 14 14 14 15 15 16 16 17 18 18 16 16 15 14 15 16 16 17 22 22 18
4 4 5 6 6 6 6 7 7 6 6 6 6 6 5 4 5 4 6 14 14 13 12 12 11 13 15 13 12 15 16 16 14 14 15 17 17 16 15 15 13 16 17 14 17 18 20
5 5 5 6 7 7 7 7 8 8 8 7 9 8 7 4 4 4 9 13 12 10 9 10 14 12 15 13 12 13 14 13 14 13 13 13 16 13 14 15 15 14 13 17 17 20 21
5 6 6 6 7 8 8 8 8 8 8 6 8 10 7 3 2 7 13 12 10 8 8 10 12 12 12 13 12 13 13 10 10 12 12 11 13 14 12 15 14 15 15 15 14 15 20
5 5 5 7 7 7 7 7 6 6 5 5 8 13 5 1 8 8 11 9 7 8 7 8 9 10 11 11 12 12 12 10 8 9 11 9 13 16 14 11 12 12 12 13 17 18 16
5 5 5 6 6 6 6 6 6 5 5 7 9 9 4 2 12 11 9 9 8 9 9 9 10 9 10 11 14 11 11 8 8 9 11 10 14 17 16 13 12 13 12 12 12 14 17
5 5 5 6 5 7 6 6 6 6 5 8 10 14 10 5 8 9 11 11 10 8 8 8 9 9 10 11 10 12 12 9 8 9 7 8 13 15 18 15 13 15 13 12 13 17 16
4 6 6 5 5 5 6 7 7 6 4 9 12 13 11 15 12 9 9 11 12 12 9 8 10 10 11 13 13 12 11 10 8 8 9 10 14 13 13 12 13 13 14 14 15 15 17
4 4 5 6 6 4 5 5 5 5 5 11 13 14 12 12 11 12 10 12 12 11 10 11 11 10 10 11 11 13 11 11 11 10 10 9 14 14 16 12 12 14 13 13 13 13 13
4 3 4 4 4 3 4 3 4 4 6 12 12 11 11 13 13 14 14 12 13 12 10 11 11 12 13 10 9 9 9 10 10 11 12 12 13 14 16 14 15 19 16 14 13 12 13
3 3 3 3 3 3 3 3 3 3 4 8 10 11 15 18 14 13 13 12 13 13 13 12 12 12 10 9 10 11 11 11 11 11 10 12 13 13 16 20 21 15 14 13 14 14 15
2 2 2 2 2 2 2 2 2 2 3 6 7 11 15 19 13 13 13 13 13 14 13 13 12 12 11 13 16 23 23 20 16 12 12 11 13 19 19 19 17 15 15 16 16 17 15
2 2 2 2 2 2 2 2 1 2 2 5 6 7 9 16 17 12 14 13 17 18 17 14 12 13 11 14 20 25 26 22 22 18 14 12 11 14 21 22 29 18 16 15 13 21 16
2 2 2 2 2 2 2 2 2 1 1 4 5 5 8 12 12 12 14 14 13 14 18 18 16 15 12 15 25 24 24 15 22 23 22 25 24 17 17 19 20 16 14 13 23 20 16
1 2 2 2 2 2 2 2 2 2 1 2 4 4 7 10 11 11 10 13 13 14 17 16 15 16 16 20 22 17 21 17 18 16 17 18 24 29 30 27 23 13 14 17 14 12 12
2 2 2 2 2 2 2 2 2 2 2 2 6 4 4 8 9 9 8 8 8 9 11 13 12 16 11 17 19 18 23 21 20 22 13 19 17 20 19 20 13 12 12 10 10 11 11

GFSGBSN_con_lsi_021.txt.gz
Lid_Strength_Index
-0 1 1 1 1 0 -0 -0 0 0 0 1 1 1 1 0 0 0 -0 -0 -0 -0 0 0 0 1 2 6 6 -0 -2 -1 2 3 4 5 6 6 7 7 7 8 8 7 6 6 7
-0 -1 -0 0 0 0 0 -0 -0 -0 -0 0 0 0 1 1 0 0 0 0 0 0 0 0 0 1 4 8 3 -0 -1 0 3 4 4 4 5 5 7 8 8 7 8 8 7 7 7
-0 0 -0 -1 -1 -0 0 0 0 0 0 0 1 1 1 1 1 0 0 0 0 1 0 0 0 1 6 5 3 1 1 3 3 3 5 4 5 6 7 8 7 8 10 8 8 7 8
-0 -0 -0 -0 -0 -1 -1 -0 0 0 1 1 1 1 1 1 1 1 1 1 2 1 1 1 1 3 7 5 3 3 3 4 3 3 4 4 5 6 7 7 8 10 9 11 9 9 9
-0 -0 -0 -0 0 0 0 0 0 0 1 1 1 1 1 1 1 1 1 2 1 1 1 1 3 5 8 5 6 5 5 6 5 5 6 6 6 7 8 10 11 10 12 11 10 8 9
0 0 -1 -0 -0 0 1 1 1 1 1 2 2 2 2 1 1 1 2 4 2 2 2 2 5 8 7 8 6 7 6 6 7 7 7 7 8 9 10 11 14 11 11 11 11 9 9
-0 0 1 -0 -0 0 0 1 1 1 1 1 1 1 1 1 1 1 2 3 4 5 5 6 5 6 5 6 6 7 6 7 6 7 10 9 11 12 10 9 9 10 11 12 10 8 10
1 1 1 0 0 0 1 1 1 0 1 1 1 1 1 1 1 2 3 5 7 7 8 4 5 6 7 7 8 8 7 9 9 11 10 11 13 10 9 9 10 11 12 12 10 9 10
1 1 1 0 1 1 1 1 1 0 0 1 1 1 1 2 2 2 4 6 6 6 9 7 7 7 8 7 8 7 8 9 10 11 11 12 10 9 11 10 11 11 12 12 12 11 11
1 1 1 1 1 1 1 1 1 1 1 1 2 2 2 2 4 3 5 6 5 6 10 9 10 10 9 9 10 9 8 9 10 11 10 11 10 11 11 12 11 14 10 12 13 13 15
1 1 1 1 1 2 2 2 2 2 2 3 3 3 2 4 2 4 5 5 5 6 17 10 11 8 9 11 11 11 9 9 11 10 11 11 12 12 12 11 11 12 11 12 12 13 13
1 1 1 1 1 2 2 3 3 3 4 4 3 3 3 3 2 3 4 5 5 11 17 10 11 11 11 11 11 10 10 9 9 11 10 10 10 11 10 10 10 11 12 12 12 12 16
1 1 1 1 2 3 3 4 4 4 5 5 4 3 3 2 4 3 4 4 12 16 9 11 12 11 12 12 11 11 11 11 11 13 12 10 11 10 10 11 10 11 12 15 16 16 17
2 2 3 3 3 4 4 4 5 5 6 6 5 3 3 2 2 3 3 8 17 12 11 9 10 10 11 9 9 10 10 10 9 11 11 12 14 10 10 10 10 10 10 15 19 19 16
2 3 3 4 4 5 5 5 6 7 7 6 5 4 4 3 2 2 5 14 13 11 9 10 9 11 11 9 10 10 10 10 9 8 12 12 12 7 8 8 9 10 12 9 14 14 17
3 4 4 5 5 6 6 7 7 7 7 6 5 6 6 3 2 3 9 12 11 9 9 9 12 10 12 11 11 10 10 9 9 9 8 10 15 9 8 8 8 10 9 14 13 20 20
4 4 5 5 6 6 7 8 8 8 7 6 6 9 6 2 2 7 12 12 11 9 8 10 11 11 11 11 11 12 11 9 7 8 8 9 12 12 9 10 11 10 11 11 11 14 19
4 5 5 6 6 6 7 8 8 7 5 5 7 12 4 2 10 9 12 11 10 10 8 9 8 9 10 9 11 11 11 9 6 7 10 8 11 15 12 8 7 9 11 11 16 17 14
5 5 5 5 6 6 6 7 8 7 6 5 8 7 3 3 12 11 10 10 9 9 9 8 9 8 7 10 12 10 9 6 6 8 9 9 13 17 14 10 10 12 11 10 11 13 17
4 4 6 6 6 6 6 6 6 7 6 5 8 12 7 6 6 8 9 9 9 7 8 7 8 7 9 10 9 10 9 7 7 7 7 8 12 14 17 13 11 13 12 11 13 16 16
5 5 6 5 6 6 6 6 6 6 7 6 9 12 9 12 9 8 8 9 10 11 8 8 9 8 9 11 10 11 9 8 7 7 7 8 14 12 11 10 10 12 12 11 13 12 16
5 5 6 6 6 6 6 6 7 7 7 8 11 10 8 8 8 9 9 10 11 10 10 11 10 9 8 10 10 12 10 9 10 8 9 8 13 11 14 11 11 12 11 11 11 11 11
6 5 6 6 6 6 6 6 6 5 7 9 8 7 9 11 10 10 10 10 10 9 9 9 9 10 11 9 8 9 8 8 8 10 10 11 11 13 16 13 13 16 14 12 11 10 10
3 4 5 6 6 6 5 3 3 4 5 6 7 7 11 13 11 11 11 10 10 9 10 10 9 10 9 7 8 9 9 10 10 10 9 12 12 12 16 15 21 14 10 10 12 11 10
3 4 4 4 3 3 3 3 3 3 3 5 5 7 9 12 11 11 11 10 9 9 10 10 9 8 7 10 13 14 15 15 14 12 12 10 12 15 17 18 15 14 11 12 12 13 9
3 2 2 3 3 3 2 2 2 3 2 3 5 4 7 10 11 10 11 10 11 11 12 11 9 8 8 10 13 18 18 17 17 15 13 12 11 14 15 19 20 14 10 10 9 15 9
1 1 1 1 1 1 2 2 2 2 2 2 4 3 6 10 8 9 10 11 9 10 11 11 11 11 9 13 15 17 17 14 18 18 16 16 15 16 16 16 14 10 10 9 15 13 8
1 1 1 1 1 1 1 1 1 1 1 2 4 2 5 8 7 7 7 9 9 9 11 12 12 12 12 14 15 15 16 14 16 14 15 16 16 16 15 17 19 9 10 13 9 8 8
1 1 1 1 1 1 1 1 1 0 0 1 5 3 3 8 7 5 5 5 6 6 8 11 9 11 10 12 12 12 14 14 15 18 12 16 13 14 13 13 8 8 8 7 6 7 7

GFSGBSN_con_lsi_024.txt.gz
Lid_Strength_Index
-0 0 1 1 1 0 -0 -0 -0 0 -0 0 0 1 1 1 0 0 -0 -0 -1 -0 -0 0 0 0 2 6 6 0 -2 -1 1 3 4 5 7 7 9 8 8 9 8 8 8 8 8
-0 -0 -0 0 0 0 0 0 -0 -0 -0 -0 0 0 1 1 0 -0 -0 -0 -0 -0 0 0 0 1 3 8 3 -0 -0 1 3 4 5 5 6 6 7 8 10 9 9 9 9 9 9
0 -0 -0 -1 -1 -0 0 0 0 0 0 0 0 1 1 1 0 -0 -0 -0 0 1 0 0 0 1 5 6 2 0 1 2 3 4 5 5 5 7 7 9 8 9 11 10 10 9 10
-0 -0 -0 -0 -0 -0 -0 -0 -0 0 0 1 1 1 1 1 1 0 0 0 1 0 1 1 1 3 7 4 3 3 3 4 4 4 4 5 5 7 8 8 9 11 12 14 10 10 10
-1 -0 -0 -0 -0 0 0 0 0 -0 0 1 1 1 1 1 1 1 1 1 2 1 1 1 2 4 8 4 6 5 5 6 5 5 6 6 6 9 9 12 13 12 15 13 12 9 11
-0 -1 -0 -0 -0 -0 0 1 1 1 1 1 1 1 1 1 1 1 1 2 1 2 2 2 4 8 8 8 6 6 6 6 7 7 8 8 9 11 12 13 17 15 14 13 13 11 11
1 0 -0 0 0 1 1 0 1 1 1 2 2 1 1 1 1 1 2 3 5 5 5 6 5 7 5 6 5 7 6 7 7 8 11 9 12 14 12 11 11 13 14 14 13 10 12
1 1 -0 -0 0 1 1 1 1 0 1 1 1 1 1 1 1 1 2 4 6 6 9 5 5 5 6 7 8 8 7 9 10 12 10 12 14 11 10 11 12 13 15 15 13 10 12
1 1 0 0 0 1 1 1 1 1 1 1 1 1 1 1 2 2 3 5 4 5 9 7 7 7 8 7 8 9 8 9 11 12 12 13 11 10 11 13 13 13 14 14 14 13 13
1 1 1 1 1 1 2 2 2 1 1 1 1 1 1 2 3 2 4 5 5 5 11 10 10 10 9 8 10 9 8 10 10 12 11 12 10 11 12 13 12 15 12 13 14 16 18
1 1 2 2 2 2 2 2 2 2 2 2 2 2 2 3 2 3 5 5 5 7 19 10 12 7 9 10 11 11 9 10 12 11 12 12 13 13 13 12 12 13 12 13 14 16 17
1 1 1 1 2 2 2 2 2 2 2 3 3 3 3 3 2 4 4 5 6 12 19 12 11 11 11 11 11 10 10 10 11 12 12 12 12 12 12 11 11 12 13 13 14 15 19
1 1 2 1 2 2 2 2 3 3 4 4 3 3 4 3 5 3 4 5 13 17 10 12 12 11 11 12 12 12 12 13 14 15 15 13 12 12 11 14 12 13 15 18 19 20 19
0 1 1 1 1 2 3 3 3 4 5 5 4 3 3 3 4 4 5 9 17 12 11 9 11 10 11 10 11 12 12 13 11 13 14 15 16 12 12 13 13 12 12 17 22 21 18
1 1 2 3 3 3 4 4 5 5 6 6 5 5 5 3 3 3 6 14 14 12 9 10 10 12 12 10 10 11 12 12 11 11 13 15 15 11 11 11 11 12 14 11 15 18 19
2 2 3 3 3 4 5 6 6 7 6 5 6 7 7 3 3 4 10 13 11 9 9 9 12 11 13 12 12 12 12 12 12 11 10 11 15 10 11 10 10 11 10 15 15 21 23
4 5 4 4 4 5 6 6 7 7 7 5 7 10 6 3 3 8 14 12 10 8 8 10 11 12 12 12 12 12 12 10 9 11 9 10 13 13 10 12 12 12 12 12 12 15 20
5 5 6 6 6 7 7 7 7 8 7 7 8 13 6 3 10 10 12 11 10 10 9 9 10 11 11 11 11 11 12 10 7 8 11 9 12 16 13 9 8 9 11 12 17 17 15
5 5 5 6 6 7 7 7 7 7 6 7 11 10 5 4 13 13 10 10 9 10 9 9 10 9 8 10 13 10 10 7 7 8 10 10 14 17 16 13 11 13 11 11 11 14 17
4 4 5 5 5 6 6 7 7 6 7 6 9 13 9 8 8 11 11 10 10 7 8 8 8 8 9 11 9 11 10 8 7 8 7 8 12 15 18 15 12 14 12 11 13 16 16
3 4 5 5 5 6 6 6 6 7 8 8 10 13 10 13 12 10 9 10 11 11 9 8 9 9 10 12 11 11 10 9 8 7 8 9 14 13 12 11 11 13 13 13 13 12 15
4 4 5 5 6 6 6 6 6 6 8 9 12 12 12 11 10 10 10 12 12 11 10 11 10 10 10 11 11 14 12 11 11 10 10 10 17 14 18 13 12 14 14 13 13 12 12
5 5 5 5 5 5 5 6 6 6 7 10 10 10 11 11 12 12 12 12 11 9 9 9 10 11 12 11 11 10 10 10 10 12 13 13 16 21 22 15 16 21 16 14 14 12 13
4 5 5 5 5 5 5 5 5 6 7 9 10 10 13 15 13 12 13 10 10 10 11 10 10 11 11 9 9 11 12 11 12 11 10 14 17 18 22 21 27 16 13 13 14 13 14
3 4 4 4 4 5 5 6 5 6 6 9 9 11 12 15 12 13 12 12 11 10 12 11 10 10 9 11 15 19 20 19 16 13 13 11 13 17 23 24 18 15 14 14 16 16 13
2 2 2 3 3 4 4 4 4 4 3 5 7 6 9 13 13 11 12 12 13 13 14 13 11 10 11 12 17 24 25 20 21 18 14 13 13 17 24 25 28 18 14 12 13 19 14
2 2 2 2 2 3 2 3 3 3 3 4 5 5 8 12 10 11 13 12 11 11 14 14 14 13 11 14 21 22 23 15 21 22 22 23 22 19 19 21 20 15 14 12 21 17 13
1 1 1 1 1 1 1 1 1 1 1 3 5 4 7 10 10 9 8 11 11 11 15 15 14 14 15 18 19 16 20 16 18 16 17 19 23 24 24 25 22 13 13 15 12 9 9
1 1 1 1 1 1 1 1 1 1 1 1 5 3 3 7 9 6 6 6 7 7 10 13 12 15 12 15 16 16 21 18 19 25 14 20 17 20 18 18 11 10 10 8 8 10 9

GFSGBSN_con_lsi_027.txt.gz
Lid_Strength_Index
0 0 1 1 1 0 -0 -0 -0 -0 -0 0 0 1 1 0 0 0 -0 -0 -1 -1 -0 0 0 -0 3 7 7 1 -2 -1 2 4 6 7 8 9 11 11 10 11 10 9 9 9 10
-0 -0 -0 0 1 1 0 0 -0 -0 -0 -0 0 1 1 1 0 0 -0 -0 -0 -0 0 0 0 0 5 10 3 1 1 2 4 5 6 7 8 8 10 10 11 10 10 10 10 10 10
-0 -0 -0 -0 -1 -0 0 1 0 1 1 0 0 0 1 1 0 -0 -0 -0 -0 0 -0 0 0 2 6 8 3 1 1 3 4 5 6 6 7 8 9 11 9 10 12 12 11 11 11
-0 -0 0 1 0 -1 -0 -0 0 0 1 1 1 2 1 1 0 0 -0 -0 0 0 0 1 1 4 9 5 5 3 4 5 5 5 6 6 6 8 9 9 10 13 14 15 12 11 11
-1 -0 -0 -0 0 0 0 0 -0 -0 0 1 1 1 1 1 1 1 0 0 2 1 1 1 4 6 9 5 7 6 6 7 6 7 7 6 8 10 10 13 15 14 17 15 13 11 12
-1 -1 -0 -0 -0 -0 0 1 1 1 1 1 1 1 1 1 0 0 0 0 2 2 2 2 3 10 9 9 7 7 8 7 8 8 9 10 11 13 14 15 18 16 16 14 15 12 13
1 -0 -1 -0 -0 -0 0 1 1 1 1 1 2 2 1 1 1 1 2 5 6 7 7 8 8 10 7 8 7 8 7 8 8 10 13 11 14 15 14 13 13 14 15 16 14 12 14
1 1 0 -0 0 1 1 0 1 1 1 2 1 1 1 1 1 1 4 7 7 7 9 6 5 6 7 8 10 9 9 11 11 14 12 14 15 12 12 12 13 14 16 16 14 13 14
1 1 1 1 1 1 2 2 0 1 1 1 2 2 2 1 1 3 5 6 6 7 11 8 7 8 9 8 9 10 10 11 13 14 14 15 13 11 12 13 14 15 16 16 15 14 14
1 1 1 1 1 2 2 2 1 1 1 1 1 2 2 2 4 4 6 5 5 7 13 11 10 11 10 10 12 10 10 11 12 13 13 14 12 12 13 13 13 15 13 14 14 16 19
1 1 1 2 2 2 3 2 2 2 2 2 2 2 2 2 4 5 6 6 6 8 19 11 12 9 10 12 12 12 10 11 13 13 13 13 14 14 14 13 13 14 14 14 15 17 18
1 1 1 2 2 2 2 2 2 2 2 3 3 2 2 3 4 4 5 6 7 13 19 14 12 12 13 13 13 12 12 11 12 13 13 13 13 13 13 13 13 13 15 15 16 17 20
1 1 1 1 2 2 2 2 2 2 2 2 3 3 3 3 5 5 5 6 13 17 11 14 14 13 13 14 14 13 14 15 15 17 17 14 14 13 13 15 13 14 16 19 21 22 21
1 1 1 1 2 2 2 2 2 2 2 3 3 3 3 3 4 5 5 9 17 13 13 11 13 13 13 13 13 13 14 15 13 14 16 16 17 14 13 13 14 15 14 19 24 22 21
0 1 1 1 2 2 2 3 4 5 5 4 4 5 4 3 4 4 7 14 15 12 10 11 11 13 13 11 11 13 14 14 13 12 15 16 16 13 12 12 12 14 15 13 16 21 20
1 1 1 2 2 3 4 4 5 5 5 4 7 7 6 3 4 5 9 13 11 10 10 10 13 12 15 13 13 13 13 13 13 12 11 13 16 12 13 12 12 12 12 15 15 22 23
3 3 3 3 4 4 5 5 5 5 5 5 8 9 7 4 4 9 14 12 11 10 9 11 12 14 14 13 12 14 13 12 11 12 10 11 13 14 12 12 12 13 13 12 13 15 20
4 4 5 5 5 5 5 5 5 5 5 6 9 12 6 4 11 11 13 11 10 11 9 10 11 12 12 12 13 14 13 11 10 9 11 10 12 17 14 11 10 10 11 12 17 17 16
5 5 5 6 6 7 7 6 5 5 5 8 11 11 7 6 14 13 11 11 10 11 11 11 12 11 10 12 13 12 10 9 8 9 10 9 14 21 18 14 11 13 11 11 11 13 17
3 5 5 6 7 7 7 7 7 6 7 8 11 14 11 9 9 12 12 12 12 10 11 10 11 10 11 11 10 12 12 9 8 8 7 8 12 17 18 16 12 15 13 13 12 16 18
2 3 4 4 5 6 7 7 8 7 8 8 11 14 11 14 12 11 10 11 12 13 10 10 11 10 11 13 12 13 11 10 9 7 9 10 16 14 13 13 14 14 14 14 14 13 16
3 4 5 4 4 5 5 5 6 7 7 9 12 13 13 12 10 10 11 12 13 12 11 12 12 10 11 12 13 14 12 12 12 11 11 11 18 15 19 14 14 15 15 14 14 14 14
4 3 3 4 5 5 4 5 6 6 8 12 12 11 12 12 13 12 12 12 12 12 12 11 10 11 12 13 11 11 11 12 12 13 14 14 17 21 24 16 17 22 17 15 14 13 15
4 4 3 4 5 5 4 4 6 6 8 11 11 12 14 16 13 12 12 11 12 12 13 13 12 13 12 10 12 13 14 13 13 13 12 15 18 21 25 24 26 17 15 15 15 14 16
2 2 3 3 5 5 4 4 5 6 6 11 10 12 14 18 14 14 15 15 14 13 14 13 13 11 11 13 16 21 21 19 17 14 14 12 14 22 23 26 20 16 15 16 17 17 15
2 2 2 3 3 3 5 5 5 5 5 9 10 9 12 16 17 14 15 15 16 16 15 14 13 12 12 13 19 25 24 21 22 19 14 13 12 16 28 25 27 18 15 13 14 20 17
1 1 1 2 2 2 2 3 4 4 3 7 9 9 12 16 14 13 15 14 12 14 16 16 15 14 12 16 26 24 23 16 22 24 23 24 25 18 18 21 22 16 14 13 23 19 17
1 1 1 1 1 1 2 2 2 3 3 5 7 6 9 14 12 11 11 12 13 13 16 16 16 16 16 21 21 17 22 17 20 18 19 20 22 25 27 28 23 14 15 17 14 12 12
1 1 1 1 1 1 1 1 1 2 2 2 6 5 5 10 12 7 8 8 9 9 13 17 15 18 13 18 20 19 23 22 22 24 15 20 17 21 19 20 14 13 12 11 10 12 11

GFSGBSN_con_lsi_030.txt.gz
Lid_Strength_Index
0 1 1 1 -0 -0 -0 -0 -0 0 -0 0 0 1 1 0 0 -0 -0 -1 -1 -1 -0 0 0 -0 3 8 8 1 -1 -1 4 5 7 8 9 9 11 11 11 12 11 9 9 9 10
0 0 0 0 1 1 -0 -1 -1 -0 -0 0 0 1 1 1 0 0 -0 -1 -1 -0 0 0 0 0 6 10 3 1 2 4 5 6 7 7 8 8 10 11 12 11 11 10 10 10 11
-0 -0 -0 -1 -0 -0 0 1 0 -0 -0 -0 0 0 1 1 0 -0 -0 -1 -1 0 0 0 0 2 6 8 2 1 3 4 5 6 7 7 7 9 9 11 10 11 12 12 12 12 12
-0 -0 -0 -0 -0 -0 -0 -0 0 1 1 1 1 1 1 1 0 -0 -0 -1 -0 1 0 0 -0 4 10 6 5 3 5 6 5 6 6 7 7 8 10 10 11 14 15 16 13 12 12
-1 -1 -0 -0 0 0 0 -0 -0 -0 0 1 1 2 2 1 1 1 1 0 1 1 1 0 4 7 10 5 8 7 7 7 7 7 8 7 8 11 11 14 16 15 18 16 13 11 12
0 -0 -1 -0 -0 0 0 0 0 1 1 1 1 1 1 1 1 0 0 1 2 2 2 2 3 9 9 10 8 7 8 7 9 9 10 10 12 14 14 16 18 17 17 16 15 13 14
1 1 0 -0 -0 -0 0 0 0 1 1 2 2 2 2 1 1 0 1 4 6 6 6 8 9 10 9 8 7 8 8 8 9 11 15 13 15 17 15 14 15 15 16 16 15 13 15
1 1 1 1 0 -0 0 0 0 0 1 1 2 2 2 1 1 1 3 7 8 8 9 7 7 7 8 8 10 9 8 11 12 14 13 15 16 13 13 14 14 15 16 17 15 13 15
1 1 1 1 1 1 1 1 0 0 1 1 2 2 1 1 2 3 5 6 6 7 10 8 7 7 8 8 9 10 10 12 13 15 14 15 13 12 13 14 15 16 16 16 15 14 15
1 1 1 1 2 2 2 2 2 1 1 2 2 2 1 1 4 4 6 6 6 8 13 11 10 10 10 9 11 10 10 12 13 14 14 15 12 13 14 14 14 16 13 14 15 17 18
1 1 1 1 2 2 2 2 2 2 3 3 2 2 2 1 5 5 5 6 7 9 19 12 12 9 11 11 12 13 11 12 14 13 14 14 14 15 15 14 13 14 14 15 16 17 19
1 1 1 1 2 2 2 2 2 2 2 3 3 3 2 2 4 4 6 6 7 12 19 14 13 13 14 14 13 13 12 12 12 14 14 14 14 13 13 13 13 13 15 15 17 18 21
0 1 1 1 2 2 2 2 2 2 3 3 3 3 3 2 5 5 5 6 13 17 12 15 15 14 14 15 15 14 15 16 16 18 17 16 14 14 13 15 14 15 16 19 21 22 21
0 1 1 1 1 2 2 2 2 2 2 2 3 2 3 3 5 5 5 9 17 14 13 12 13 14 15 14 14 14 15 16 15 15 16 17 17 14 13 14 15 16 15 19 24 23 21
0 1 1 1 1 1 2 2 2 2 2 3 3 4 4 4 4 4 7 15 15 12 11 13 13 15 14 13 13 15 16 16 13 14 15 17 16 14 14 13 12 15 16 14 17 24 22
0 0 1 1 1 2 2 2 2 3 3 4 6 7 6 4 3 5 10 13 11 9 11 10 14 12 15 13 13 15 15 14 13 12 12 14 16 13 13 12 13 14 12 17 17 23 23
2 0 0 1 1 2 2 4 4 4 4 5 7 9 7 4 5 8 13 12 10 9 10 11 12 13 13 14 13 15 15 13 13 13 11 12 14 15 13 14 13 14 14 14 14 16 21
3 3 3 3 3 2 3 4 4 4 5 6 9 12 7 5 11 11 13 11 10 11 10 11 11 13 14 13 14 15 15 13 11 11 13 12 13 19 15 13 12 12 13 13 17 18 17
4 4 4 5 5 4 4 3 3 4 4 8 10 11 7 6 13 14 12 11 11 12 11 11 12 11 11 12 14 13 14 12 11 11 12 11 16 22 18 15 12 14 13 13 13 14 19
3 4 4 4 5 5 6 5 4 6 6 7 11 14 11 9 10 12 13 13 12 10 11 11 11 11 12 13 13 15 14 12 10 10 8 9 15 17 18 18 14 16 14 14 13 18 18
2 3 4 4 5 5 6 6 7 7 7 8 11 13 12 15 13 12 11 12 13 13 11 10 12 12 12 14 14 14 13 12 11 9 10 11 15 15 15 14 13 14 14 14 15 15 17
2 3 3 3 4 5 5 6 7 7 7 10 13 14 13 13 11 12 12 14 14 12 12 13 12 11 11 13 13 15 12 12 13 12 12 13 18 16 19 14 14 16 15 15 14 14 14
3 2 3 3 3 4 4 5 5 6 7 11 12 12 13 14 13 13 14 13 13 11 11 11 10 12 13 12 12 13 13 13 12 13 14 14 17 21 22 18 19 23 19 16 15 15 15
2 3 3 3 3 4 4 5 6 5 6 10 10 11 13 15 14 13 13 11 12 12 12 13 12 11 13 13 14 14 15 15 14 13 12 15 18 19 24 25 29 18 16 16 16 15 16
2 2 2 3 3 4 4 4 5 5 6 10 10 11 13 16 13 14 14 13 13 12 15 15 14 13 12 14 17 20 21 18 18 16 15 13 16 20 22 26 21 17 16 17 17 18 16
1 1 2 2 3 4 4 4 4 4 5 10 10 10 12 15 16 13 14 14 16 16 17 16 14 13 13 15 18 22 23 21 23 20 16 14 14 17 27 28 27 18 17 14 14 21 18
1 1 1 1 2 3 3 3 4 3 4 8 10 9 11 16 14 14 16 15 14 15 17 16 16 15 13 17 21 23 23 18 23 24 24 22 17 18 19 26 23 17 14 13 22 19 18
1 1 1 1 1 1 2 2 3 3 3 7 9 9 11 16 14 13 13 14 15 15 17 17 15 15 16 17 20 18 22 18 20 19 19 20 21 22 22 22 24 14 14 17 14 13 13
1 1 1 1 1 1 1 1 1 2 2 4 8 7 8 14 14 11 11 10 11 10 13 16 14 17 14 17 20 18 22 22 21 23 15 20 17 21 19 19 14 13 12 11 12 13 12

GFSGBSN_con_lsi_033.txt.gz
Lid_Strength_Index
0 1 1 1 -0 -0 0 0 0 0 -0 0 0 0 1 0 0 0 -0 -1 -1 -1 -0 0 0 0 4 9 8 2 -1 -1 4 5 7 8 10 10 12 12 11 12 12 10 9 10 10
1 0 0 1 1 0 -0 -0 -0 -0 -0 0 0 1 1 1 0 0 -0 -1 -1 -1 0 0 0 1 7 11 3 2 3 5 5 7 8 8 9 9 11 11 12 12 11 11 11 10 11
0 0 1 -0 -0 0 1 0 -0 -1 -0 -0 0 0 1 1 0 0 -0 -1 -1 -1 0 0 0 2 7 9 3 2 4 5 5 7 8 7 8 9 10 12 11 11 13 12 12 12 12
-0 -0 -0 0 -0 -0 0 1 1 1 1 0 0 0 1 1 0 0 -0 -1 -1 -1 0 0 0 4 9 6 4 3 5 6 6 6 7 7 8 9 10 11 12 14 15 16 14 13 13
1 0 -0 -0 0 0 0 -0 0 0 1 1 1 2 1 1 1 1 0 0 1 1 1 1 4 7 9 4 7 7 7 7 8 8 8 7 9 11 12 15 16 16 18 17 14 12 13
0 1 -0 -0 0 0 0 1 0 0 0 1 1 1 1 1 1 1 1 1 2 2 3 2 4 9 9 10 8 8 8 7 9 9 10 10 12 15 15 17 19 18 18 17 17 14 14
1 1 1 0 -0 0 0 0 1 1 1 1 1 1 1 1 0 -0 1 4 6 6 6 8 9 9 9 8 8 9 8 9 9 11 14 13 16 17 16 15 16 17 17 18 16 13 15
1 1 1 1 1 0 0 0 0 0 1 1 2 2 1 1 1 1 4 6 7 7 9 7 7 8 8 8 10 10 9 11 12 14 13 15 17 14 14 15 15 17 18 17 15 14 15
1 1 1 1 1 1 1 0 0 0 1 1 2 2 2 2 1 3 5 6 6 8 10 8 7 8 8 8 9 10 9 11 13 15 15 16 14 13 14 15 16 16 17 17 16 15 16
1 1 1 1 2 2 2 2 2 2 1 1 2 2 2 1 3 4 6 6 6 7 13 12 11 10 10 9 11 10 10 11 14 14 15 15 13 14 15 15 14 16 14 14 15 17 18
1 1 1 1 2 2 2 2 2 2 3 3 2 2 2 1 4 6 5 6 6 8 19 12 12 9 11 11 12 13 11 12 14 14 14 15 15 16 15 14 13 14 14 15 16 18 19
1 1 1 1 1 2 2 2 2 2 3 3 3 3 2 2 3 4 6 6 7 12 19 14 13 14 13 13 14 13 13 12 13 14 15 14 14 14 14 14 13 14 15 16 18 18 21
1 1 1 1 1 2 2 2 2 2 3 3 3 3 3 2 4 4 5 6 13 17 12 15 16 14 15 16 15 14 15 16 16 17 17 16 15 15 14 15 15 15 16 20 21 22 21
1 1 1 1 1 1 2 2 2 2 2 3 3 3 3 2 3 5 5 9 17 13 13 13 14 15 16 15 15 15 16 17 15 16 18 18 18 15 14 14 16 16 16 19 24 23 21
3 2 1 1 1 1 2 2 2 2 2 2 3 3 3 2 4 5 7 15 15 13 12 14 14 16 16 15 15 16 17 17 15 15 16 18 17 15 15 14 13 16 17 15 18 26 23
4 3 2 2 1 2 2 2 2 2 3 3 4 4 4 3 4 5 10 13 11 9 10 12 15 14 16 14 15 16 17 15 14 14 14 15 17 15 14 14 14 14 14 17 18 24 24
3 3 2 1 2 1 2 2 2 2 3 3 7 8 6 4 4 7 13 12 10 9 10 11 13 13 14 14 14 17 15 14 13 14 12 14 15 17 15 15 15 15 16 15 15 18 22
2 2 3 3 1 1 1 1 2 3 3 5 8 11 7 4 10 10 12 11 10 11 10 11 12 12 13 14 14 15 15 14 12 12 14 13 15 19 16 15 15 14 15 14 17 19 19
3 3 3 3 3 3 2 2 2 2 3 6 10 11 7 7 13 14 12 11 11 12 11 11 12 12 12 13 15 15 15 13 13 12 13 12 17 23 19 17 15 16 15 14 15 17 22
3 3 3 4 4 4 4 3 3 3 4 7 11 13 11 10 10 12 13 13 13 10 11 11 12 12 13 14 14 15 15 13 12 12 10 10 16 17 17 18 16 17 16 15 16 19 19
2 3 3 4 5 5 4 4 5 5 5 7 10 13 11 15 13 12 11 12 13 14 11 11 12 12 13 15 14 15 14 13 12 11 13 13 19 17 17 16 16 16 16 16 17 16 16
2 2 2 3 4 5 5 5 5 6 6 10 13 13 13 12 11 12 12 13 13 12 12 13 12 11 11 14 14 15 14 14 14 14 14 14 18 17 20 15 15 16 15 16 15 15 15
2 3 2 2 3 3 5 5 5 5 6 11 11 11 13 13 12 13 13 12 12 11 12 11 11 12 12 12 12 13 12 12 12 14 15 16 17 18 18 19 19 21 19 16 15 15 15
2 2 2 2 2 3 3 4 4 5 6 8 10 11 14 15 14 13 13 12 13 12 13 13 12 12 14 14 13 14 16 16 14 15 13 15 16 18 22 22 24 18 19 18 17 15 17
2 2 2 2 2 2 3 3 4 5 6 9 9 12 14 16 14 14 14 14 12 13 16 15 15 14 13 14 16 18 19 18 18 16 15 15 16 21 20 26 21 18 18 19 19 18 16
1 1 1 2 2 3 3 2 3 4 6 8 9 8 11 15 15 13 14 14 15 15 17 16 15 14 14 16 17 20 22 20 22 21 17 15 15 16 25 25 26 19 19 17 16 21 18
1 1 1 1 1 2 2 2 3 3 4 9 10 9 12 15 14 12 14 14 13 14 16 16 16 15 15 18 21 22 22 19 23 24 23 22 19 18 22 20 22 19 16 15 22 19 18
1 1 1 1 1 1 2 2 2 2 4 7 9 9 13 15 14 13 13 14 15 14 16 16 16 16 17 17 18 20 22 21 22 21 21 22 22 23 23 23 24 15 15 17 14 14 14
1 1 1 1 1 1 1 1 1 2 3 5 10 8 9 15 14 11 11 11 12 12 15 16 15 17 15 18 20 19 22 23 23 25 18 20 18 20 19 19 14 13 13 11 12 13 13

GFSGBSN_con_lsi_036.txt.gz
Lid_Strength_Index
-0 -0 1 0 -0 -0 -0 0 0 0 0 0 0 1 1 1 1 0 -0 -0 -1 -1 -1 0 -0 -0 4 10 8 3 -1 0 4 6 8 9 10 11 13 12 12 11 12 11 10 11 11
-0 -0 -0 0 1 0 -0 -0 -0 -0 -0 0 0 1 1 1 0 0 -0 -0 -1 -1 -0 0 0 0 8 11 4 3 4 6 6 7 8 9 9 9 11 12 13 12 12 11 11 12 12
1 -0 0 0 -0 1 1 -0 -1 -0 -0 0 0 0 1 1 0 0 -0 -0 -1 -1 -0 0 1 3 8 8 3 3 5 6 6 7 8 8 8 10 11 12 11 12 13 13 13 13 13
1 1 0 0 0 0 0 1 1 -0 -0 0 0 0 1 1 1 0 -0 -0 -0 -0 0 0 0 5 9 6 4 4 5 6 6 7 7 7 8 9 11 11 12 14 15 16 14 13 13
0 1 1 1 0 0 1 0 0 1 1 1 1 1 0 0 1 0 -0 -0 1 0 0 0 5 8 9 5 7 7 7 7 7 8 8 7 9 11 12 14 16 17 18 18 15 13 14
0 1 1 1 1 -0 1 1 0 0 1 1 2 2 2 1 1 1 0 0 1 2 3 3 5 10 9 10 9 8 8 8 9 10 10 11 12 14 15 16 18 18 19 18 18 15 15
0 1 1 1 1 1 0 1 1 1 1 0 1 1 1 1 1 1 2 5 7 7 7 8 9 9 9 9 8 9 8 9 9 12 14 13 15 16 15 15 16 17 18 18 17 14 16
0 1 1 1 1 1 1 1 0 0 1 1 1 1 1 1 0 -0 3 6 6 7 9 6 7 8 8 9 11 10 8 11 12 14 14 15 17 14 14 15 16 17 18 18 16 15 15
0 0 1 1 1 1 1 2 1 0 1 1 2 2 2 2 2 2 4 5 5 6 10 8 8 8 8 9 10 10 10 12 14 15 15 16 14 13 14 16 17 17 18 18 16 16 16
2 1 1 1 1 2 2 2 2 1 1 1 1 2 2 2 3 3 5 3 6 7 13 12 10 10 10 9 11 10 10 12 14 14 15 15 14 14 16 16 15 18 15 15 16 17 19
2 3 1 1 1 2 2 2 2 2 2 2 1 2 2 1 4 5 5 6 7 8 20 12 12 9 10 10 12 13 11 12 15 14 14 15 15 16 15 15 14 16 15 16 17 18 19
2 2 2 2 1 2 2 2 2 2 3 3 3 2 2 3 4 4 6 6 7 13 19 14 13 14 13 13 13 13 13 12 12 14 15 15 15 14 14 15 14 15 16 17 18 19 22
2 2 2 1 1 2 2 2 2 2 2 3 3 3 3 2 5 5 5 6 13 18 13 15 16 15 14 15 15 14 15 16 16 17 17 16 16 16 15 16 16 16 17 20 22 22 21
3 3 2 2 1 2 2 2 2 2 2 3 3 3 4 2 3 5 5 9 17 14 14 14 15 15 16 15 15 15 16 16 15 17 18 18 19 15 14 15 16 17 17 20 24 24 22
3 4 3 3 2 1 2 2 2 2 2 3 3 3 3 3 4 4 8 15 15 14 12 15 15 17 17 15 16 16 17 17 15 16 17 18 17 16 16 15 15 17 18 16 20 27 24
3 4 4 4 2 1 1 2 2 2 2 3 4 4 5 2 3 5 10 13 12 10 11 13 15 15 18 16 17 18 18 16 15 14 14 15 18 16 15 15 15 15 14 18 19 24 26
2 3 4 5 5 2 2 1 2 2 2 3 4 7 5 2 4 7 13 12 10 9 10 12 13 14 16 15 16 18 17 15 14 15 13 14 15 17 15 16 16 16 17 17 17 19 23
2 2 3 4 5 4 2 2 1 2 3 4 7 10 6 2 9 9 12 10 9 9 10 11 11 12 14 14 16 17 16 14 13 12 15 13 15 20 17 16 16 16 16 16 18 20 21
2 2 3 3 3 3 2 1 1 2 2 5 9 10 7 7 13 12 10 10 10 12 11 12 12 12 12 13 14 15 15 13 12 12 13 13 17 23 20 17 17 17 16 16 16 18 22
2 1 2 3 4 3 3 3 1 1 2 5 9 12 10 9 10 11 12 12 12 11 11 11 11 12 13 14 13 15 15 14 13 13 11 11 16 18 19 18 17 18 17 16 17 21 20
2 2 2 3 4 4 4 4 4 4 4 5 9 11 11 14 12 11 11 12 13 13 11 11 12 12 12 14 13 15 15 14 13 11 13 13 18 18 18 17 17 17 17 17 18 16 17
2 2 2 2 4 4 4 4 4 5 5 9 11 12 11 12 10 11 12 13 14 13 12 13 13 12 12 14 13 16 14 14 14 14 14 15 18 18 20 17 17 18 17 17 16 17 17
2 2 2 2 3 4 4 5 5 5 6 11 11 11 12 12 12 12 13 13 13 11 11 11 11 12 13 12 12 13 13 12 12 14 15 15 17 19 19 20 19 19 18 17 17 16 15
1 2 2 2 2 2 3 4 4 5 6 9 10 11 13 15 14 12 12 11 11 11 12 13 12 12 14 13 13 14 15 15 14 16 14 17 18 17 23 20 22 18 20 18 15 15 16
1 1 1 2 2 2 2 3 3 4 6 8 8 10 13 15 13 15 14 13 12 13 15 14 15 14 13 14 16 17 18 16 18 19 17 16 16 21 22 22 19 19 20 20 19 19 17
1 1 1 1 1 2 2 2 3 4 4 7 8 8 11 13 14 12 14 14 15 17 17 18 16 14 14 15 16 19 21 19 21 22 18 16 16 16 23 22 23 20 20 18 17 21 18
1 1 1 1 1 1 1 1 2 3 4 7 8 7 10 14 12 12 14 14 13 14 17 17 17 16 15 17 20 19 20 18 21 23 23 20 20 18 22 21 21 19 18 17 22 19 20
1 1 1 1 1 1 1 1 1 2 3 7 10 8 10 13 13 12 12 14 14 13 16 16 16 16 17 17 17 19 20 20 21 21 21 21 21 22 21 22 22 17 17 18 16 16 16
1 1 1 1 1 1 1 1 1 1 1 4 9 8 9 13 13 11 11 11 11 10 13 15 14 16 14 16 18 19 21 21 21 23 19 21 19 21 19 19 17 15 15 14 13 14 14

GFSGBSN_con_lsi_042.txt.gz
Lid_Strength_Index
-0 -1 -0 -0 -1 -0 -0 -0 -0 -0 -0 -0 0 0 0 1 1 0 0 -0 -1 -1 -1 -1 -0 -0 3 5 5 1 -0 -1 2 4 4 5 7 7 8 8 7 8 8 8 7 8 7
-0 -0 -1 -0 -0 -1 -0 0 -0 -1 -0 -0 0 0 1 1 0 0 0 -0 -1 -1 -1 -0 -0 0 4 6 2 1 3 4 4 4 5 5 6 6 7 8 8 8 8 8 8 8 8
0 -0 -0 -1 -1 0 -0 -0 0 -0 -0 -0 0 0 1 1 0 0 0 0 -1 -1 -0 -0 0 2 5 4 1 2 4 4 4 4 5 5 5 6 7 8 8 8 9 8 9 9 9
-0 0 -0 0 -0 -0 0 0 -0 -0 -0 0 0 1 1 1 0 0 0 -0 -0 0 0 0 0 4 5 5 0 3 3 4 4 4 5 5 5 6 7 7 8 9 10 10 9 9 9
-1 -0 -0 0 0 0 0 0 0 1 -0 -0 0 1 1 1 1 1 0 0 -0 1 0 0 3 5 6 3 4 3 4 5 5 5 5 5 5 7 7 9 10 10 11 11 10 9 10
-0 -0 0 0 0 1 1 1 0 1 1 1 1 0 0 0 0 1 1 -0 0 1 2 2 3 6 6 7 6 5 5 5 6 6 6 7 8 9 10 10 12 11 12 12 11 10 10
0 0 -0 0 0 1 1 2 2 1 1 1 1 1 1 0 0 0 -0 1 3 4 4 5 5 6 7 7 6 6 5 6 7 7 9 9 10 11 9 9 10 10 11 11 11 11 11
-1 0 0 1 -0 1 1 1 2 1 1 1 1 1 1 1 1 1 0 4 3 4 7 4 5 6 6 6 9 8 6 8 9 10 10 11 11 8 10 10 11 11 12 11 11 11 11
-1 -0 0 1 1 -0 0 1 1 1 2 2 2 2 1 1 1 1 2 2 4 4 7 6 5 6 7 7 8 9 7 8 10 11 11 11 10 10 11 12 12 12 12 12 12 12 12
-1 -1 0 0 1 1 0 1 1 1 2 2 3 3 2 1 3 2 4 1 2 3 9 9 8 6 8 7 9 8 7 8 10 11 11 11 11 12 12 12 12 13 11 12 13 14 14
-1 -0 -0 0 1 1 2 1 1 2 2 2 2 3 3 3 3 4 3 1 1 4 18 9 9 7 8 8 9 10 8 9 11 12 11 12 13 13 13 12 12 12 12 12 13 13 14
-0 -0 0 0 1 1 2 1 1 1 2 2 2 2 3 3 4 3 3 3 4 11 17 12 11 11 10 11 12 11 11 9 10 12 12 11 12 12 11 12 12 13 14 14 14 14 17
0 0 0 1 1 1 1 1 1 2 2 2 2 3 3 3 5 4 5 5 12 16 10 14 13 12 11 13 13 12 12 13 12 14 13 12 13 12 12 13 13 13 13 16 17 18 18
1 0 1 1 1 1 2 1 2 2 3 2 2 3 3 2 2 5 6 9 17 12 12 12 13 12 12 13 13 13 13 13 11 12 13 14 15 13 12 11 13 14 13 15 20 19 17
1 1 1 1 1 1 1 2 2 2 3 3 2 3 3 2 3 5 7 15 14 12 10 13 13 14 13 14 13 14 13 13 11 11 13 14 14 13 13 13 11 15 16 13 18 21 18
2 1 1 1 1 1 1 2 2 3 3 3 4 4 4 2 3 6 10 13 11 9 10 11 13 12 14 14 14 14 14 12 12 11 10 12 15 14 14 12 13 13 12 16 16 19 20
3 2 2 2 1 1 2 2 2 3 3 3 5 7 3 2 3 7 13 12 10 8 9 11 11 12 13 14 12 14 13 13 11 12 10 12 13 15 14 15 14 15 15 15 14 15 18
2 3 3 2 2 1 1 2 2 3 3 4 6 10 3 2 9 9 12 10 9 9 9 9 10 10 13 13 14 14 14 12 11 11 13 11 13 16 16 14 14 13 14 14 15 18 17
2 2 3 3 2 1 1 2 2 2 2 4 8 8 5 4 12 12 9 10 9 10 9 9 10 10 10 12 14 13 13 12 11 11 12 12 14 17 16 15 15 16 15 14 13 14 16
1 1 2 3 2 2 1 2 2 2 2 3 8 13 9 8 7 10 11 11 12 9 9 9 9 10 12 12 12 12 13 13 12 11 10 10 13 14 16 14 13 16 15 14 14 15 15
1 1 2 2 3 2 2 2 2 2 3 3 7 10 9 12 10 10 10 10 12 12 10 9 10 10 11 13 12 12 11 13 13 12 12 12 15 13 13 13 14 14 14 15 15 14 15
1 1 1 1 1 2 1 2 2 2 3 6 9 11 11 10 9 10 10 11 12 11 11 11 11 11 10 12 11 13 11 12 12 13 13 13 14 14 15 14 15 16 14 14 14 13 13
1 1 1 1 1 1 1 1 2 2 4 9 9 10 9 11 11 11 11 11 12 10 10 10 10 10 12 10 10 12 12 11 12 13 14 14 14 16 17 14 17 19 16 15 14 13 13
2 1 1 0 1 1 1 1 2 2 3 7 9 10 11 13 12 11 10 10 10 10 11 10 9 10 11 11 11 12 14 14 14 15 13 15 15 15 18 18 21 16 16 13 14 14 14
2 2 1 1 1 1 1 1 1 2 3 5 8 10 13 14 12 13 11 10 10 10 11 12 12 12 10 12 15 16 17 16 18 18 16 14 14 19 19 19 16 19 19 16 16 15 14
2 2 1 1 1 1 1 1 1 2 2 5 6 7 10 13 14 12 14 13 12 13 16 16 15 13 12 14 15 18 18 16 19 19 17 16 15 15 20 19 20 15 17 17 14 17 15
1 1 1 1 1 1 1 0 0 1 2 4 6 5 8 13 12 12 13 14 12 14 15 16 15 15 14 15 16 17 16 15 18 19 19 18 18 17 18 18 17 14 17 17 18 15 15
1 1 1 1 1 1 1 0 0 0 1 4 6 5 8 10 11 12 11 13 13 12 14 14 14 15 15 16 16 17 18 17 17 18 18 17 18 18 18 18 19 17 18 17 14 16 15
1 1 1 1 2 1 1 1 0 0 1 3 7 6 7 9 10 10 11 10 10 10 13 14 13 14 12 13 14 16 18 19 17 18 18 17 14 16 15 15 17 16 15 14 14 13 15

GFSGBSN_con_lsi_045.txt.gz
Lid_Strength_Index
-1 -0 -1 -1 -1 -0 -1 -0 -0 -1 -0 -0 -0 0 0 0 1 0 0 -0 -1 -1 -1 -1 -1 -0 1 4 4 1 -1 -1 2 3 4 5 6 6 7 7 7 7 7 7 6 6 7
-1 -0 -0 0 -1 -1 -1 -1 -0 -1 -1 -0 -0 0 0 0 0 0 0 -0 -1 -1 -1 -1 -1 0 3 6 2 1 2 2 3 3 4 4 6 5 7 7 7 7 7 7 6 7 7
-1 -1 -0 -0 0 -0 -1 -0 -0 -1 -0 -0 -0 0 0 0 0 0 0 -0 -0 -1 -0 -0 -0 1 4 4 1 2 3 4 3 3 5 4 4 6 6 7 6 7 8 7 7 7 8
-1 -1 -0 -0 0 0 -0 -0 -0 -0 -0 -0 0 0 0 0 0 0 0 0 -0 -0 0 0 -0 2 5 3 0 2 2 4 3 3 4 4 4 5 6 6 7 8 8 9 7 8 8
0 -1 -1 -0 -0 0 0 1 0 -0 0 0 0 1 1 0 0 0 0 0 -0 0 0 0 2 3 5 2 4 2 2 4 4 4 4 4 4 6 7 8 9 8 10 9 8 8 8
-1 -0 -1 -0 -0 0 0 1 1 1 0 0 0 1 1 1 0 0 1 0 -0 1 1 2 3 5 5 6 4 3 3 3 5 5 6 6 6 8 8 9 12 10 10 9 10 9 9
-1 -1 -0 0 -0 0 1 1 1 1 2 1 0 0 0 1 0 0 1 1 3 4 3 5 4 5 6 6 4 5 4 5 5 6 8 7 9 10 9 8 8 9 9 10 8 8 10
-1 -1 -1 -1 -0 -0 -0 0 1 1 1 2 2 1 1 0 0 0 0 3 3 4 6 3 3 4 5 5 8 6 5 7 7 9 7 10 11 8 7 8 8 9 10 10 8 9 10
-1 -1 -1 -1 -1 -0 1 0 0 1 1 2 2 2 1 1 1 1 2 2 1 2 6 5 4 5 5 6 7 7 6 6 8 9 10 10 9 8 9 9 10 10 10 10 10 10 10
-1 -1 -1 -1 -1 -1 0 1 1 1 1 2 2 2 2 1 3 2 4 1 1 2 9 9 7 5 6 5 7 5 5 7 10 10 9 9 7 10 10 11 10 12 9 10 11 12 13
-0 -0 -0 -0 -0 -0 0 1 1 1 1 2 2 2 2 2 3 4 3 1 -0 2 17 8 8 6 6 7 8 10 6 8 9 10 9 10 11 11 11 11 10 11 10 11 11 12 12
0 0 0 0 0 -0 0 1 1 1 2 2 2 2 2 3 3 2 1 1 2 11 16 11 10 10 10 8 10 10 9 8 8 9 10 9 9 10 10 11 10 10 12 12 12 13 16
1 1 0 0 0 0 0 1 1 1 1 1 2 2 3 2 5 4 3 4 12 15 10 12 12 10 10 11 12 11 12 12 12 14 13 12 11 10 10 12 12 11 12 16 17 17 18
1 1 1 0 0 1 1 1 1 2 1 1 2 1 3 2 2 4 4 9 17 13 12 10 11 11 11 12 12 12 12 13 11 11 11 13 14 11 10 10 10 13 12 15 21 19 16
1 1 2 1 1 1 1 1 1 1 1 1 1 2 2 2 2 4 7 15 14 12 10 11 11 12 12 12 12 13 12 12 10 10 13 13 13 10 10 9 9 12 14 10 15 18 18
2 2 2 2 1 1 1 1 1 1 1 2 3 4 3 1 2 5 10 13 11 9 9 9 12 11 12 12 13 13 12 10 10 9 8 10 14 12 12 12 11 12 11 15 15 20 20
1 2 2 2 2 2 1 1 1 1 1 2 3 7 3 1 4 7 13 12 10 8 8 9 11 11 11 11 12 13 11 10 9 10 9 9 11 14 13 14 13 14 14 13 13 14 19
0 1 2 2 2 3 2 1 1 1 1 2 4 10 2 1 10 9 12 10 9 9 7 8 8 9 10 10 12 12 12 10 9 9 12 10 11 14 14 11 11 11 12 13 15 17 16
0 0 1 2 2 3 3 2 1 2 1 3 7 8 3 3 12 12 10 10 9 9 9 9 9 9 8 10 12 11 10 8 9 10 11 10 13 18 15 15 14 15 13 12 13 14 16
0 0 0 1 1 2 2 2 1 2 2 3 6 10 8 7 7 10 11 11 11 8 9 8 9 8 10 10 9 10 10 11 10 10 9 9 13 15 17 13 12 15 14 13 14 16 15
0 0 1 1 1 1 2 2 2 2 2 3 6 10 8 12 11 10 10 10 12 12 9 9 10 10 11 13 12 11 10 13 12 11 11 10 15 13 12 11 11 13 14 14 15 14 15
1 1 1 1 0 1 1 1 1 2 2 4 8 8 8 8 9 10 10 11 12 11 10 11 11 10 9 12 11 13 10 11 12 12 13 12 15 13 15 12 12 14 13 13 14 14 13
2 2 1 1 1 0 1 0 1 1 2 4 5 7 8 9 10 11 12 11 11 9 9 8 10 10 11 10 8 9 10 9 9 12 14 14 15 16 17 13 14 18 15 13 13 12 12
2 2 3 2 1 1 0 0 0 0 1 2 4 6 11 12 10 11 10 10 11 9 11 10 9 10 10 10 11 12 14 14 13 14 13 15 15 15 17 16 21 14 11 12 12 12 11
1 1 2 2 2 1 0 0 0 -0 0 3 4 6 10 12 10 10 10 10 9 9 10 10 10 9 9 11 15 16 16 16 16 16 15 13 14 16 18 18 14 14 17 14 13 13 10
0 1 1 2 2 2 1 0 0 0 -0 2 3 3 7 11 11 10 10 10 11 11 13 14 14 13 11 13 15 17 18 15 17 18 17 16 14 15 17 19 20 16 14 13 11 16 12
0 1 1 1 2 2 1 1 0 0 -0 2 2 2 6 10 8 10 12 12 11 12 13 15 15 14 14 15 15 15 16 14 17 18 19 18 17 18 16 17 15 14 16 14 16 15 14
0 1 1 1 1 2 1 1 1 0 -0 2 4 2 5 9 8 9 10 12 12 13 15 14 14 15 15 15 14 15 15 15 16 16 17 17 17 17 16 17 18 15 17 15 13 15 13
0 0 1 1 1 1 2 1 1 0 0 2 5 3 4 7 8 8 8 9 10 10 12 13 13 14 13 14 13 14 16 16 15 17 16 17 14 15 14 15 17 15 15 14 13 12 14

GFSGBSN_con_lsi_048.txt.gz
Lid_Strength_Index
-1 -0 -0 -0 -1 -1 -1 -1 -1 -1 -1 -0 -0 -0 0 0 0 0 0 -0 -1 -1 -1 -1 -1 -0 1 4 4 1 -0 -1 1 3 4 5 7 7 9 8 7 9 8 8 7 7 8
-1 -1 -1 -0 0 -0 -1 -1 -1 -0 -0 -1 -0 0 0 0 0 0 0 0 -0 -1 -1 -1 -1 0 2 6 1 1 2 2 3 4 5 5 6 6 8 8 9 8 8 8 7 8 8
-1 -1 -1 -0 -0 0 0 -1 -1 -1 -0 -0 -0 0 0 0 0 0 0 0 -0 -1 -1 -1 -1 1 4 4 1 2 3 3 3 3 4 4 5 6 7 8 7 8 10 9 9 8 9
-0 -1 -1 -0 -0 0 0 1 0 -1 -0 -0 -0 0 0 0 0 0 -0 -0 -0 -1 -0 -0 -1 2 5 2 1 2 3 4 3 3 4 4 4 5 7 7 8 10 10 12 9 8 9
-1 -1 -0 -1 -1 -0 0 0 1 1 0 0 0 0 0 0 0 0 0 0 0 -1 -0 -0 2 3 6 2 3 2 3 4 4 4 4 4 4 7 8 10 11 10 13 12 11 9 10
-1 -0 -0 -0 -0 -0 -0 -0 0 1 1 1 1 1 0 0 0 0 0 0 -0 -0 1 1 2 6 5 6 4 3 3 4 5 6 6 6 8 10 10 11 14 12 13 11 12 11 10
-1 -1 -1 -1 0 -0 -0 0 1 1 1 2 2 2 0 0 0 0 1 1 4 5 3 5 5 5 6 6 4 5 4 5 5 7 10 8 11 12 10 10 9 10 12 12 11 10 11
-1 -1 -1 -1 -1 -1 0 0 -0 -0 1 2 2 2 2 0 0 0 1 4 3 4 7 4 4 4 5 6 8 6 5 8 8 10 9 11 12 9 8 9 10 11 12 12 10 10 12
-1 -1 -1 -1 -1 -1 -1 -0 1 -0 0 1 2 2 2 1 1 1 3 3 2 2 7 7 4 5 5 6 7 8 7 7 9 10 10 11 9 8 9 10 11 11 12 12 12 11 12
-0 -1 -1 -1 -1 -1 -1 -0 -0 1 1 1 1 2 2 2 3 3 3 1 0 2 10 11 7 5 6 6 8 6 6 7 9 10 9 10 8 10 11 11 10 12 10 10 12 14 16
-0 -0 -0 -1 -0 -0 -0 -0 0 0 1 1 1 2 2 1 3 5 3 1 0 3 18 8 8 4 6 7 8 9 7 8 10 10 9 11 11 12 11 11 10 12 11 12 13 14 15
0 0 -0 -0 -0 -0 0 0 -0 0 0 1 1 2 2 2 3 2 2 2 3 12 18 11 10 10 10 8 9 9 9 8 8 10 10 11 10 10 10 10 10 10 12 13 14 15 19
1 1 0 0 0 -0 0 1 1 1 1 1 1 1 2 2 5 2 2 4 14 17 11 13 12 10 11 11 12 11 12 13 13 14 14 12 12 11 11 13 12 12 14 18 19 20 20
1 1 1 0 0 0 0 0 1 1 1 2 1 1 2 2 2 2 3 9 18 13 12 9 10 10 12 11 12 12 13 14 12 12 13 15 16 12 12 12 13 14 14 17 22 21 19
1 1 1 1 1 0 0 1 1 1 1 1 1 2 2 1 1 2 7 15 15 12 10 11 11 12 13 12 12 13 14 13 12 12 14 14 14 12 11 11 11 14 15 12 16 22 21
0 1 1 1 1 1 1 1 1 1 1 1 2 4 3 0 1 3 10 13 13 10 9 10 13 12 14 13 14 14 14 12 12 11 10 11 15 13 14 12 12 13 12 17 17 23 23
0 0 0 1 1 1 1 1 1 1 1 1 3 6 2 -0 1 7 13 12 11 8 8 10 12 12 12 12 13 15 13 12 10 11 10 10 12 16 14 15 14 15 16 15 14 16 20
0 0 0 0 1 1 1 1 2 1 1 2 4 10 2 1 9 9 12 10 8 9 7 8 9 10 11 11 13 13 14 11 9 9 12 10 12 17 16 13 13 12 14 14 16 18 17
0 0 0 0 0 1 2 2 2 2 1 3 7 7 2 3 12 12 9 10 8 9 9 9 9 9 9 10 12 12 11 10 9 10 11 10 14 18 17 16 14 15 14 13 13 15 17
1 0 0 0 0 0 1 1 2 1 1 3 7 10 7 6 7 10 11 11 11 8 9 9 9 9 10 11 10 12 12 11 9 9 9 9 13 14 17 15 14 17 15 14 14 17 17
1 1 0 0 0 0 0 1 1 1 1 3 7 9 7 11 10 9 10 10 12 12 9 9 10 10 11 13 12 12 10 12 12 10 10 10 14 13 13 12 13 15 15 15 15 15 16
1 0 0 0 0 -0 0 0 0 -0 -0 4 8 9 7 8 8 9 10 11 12 11 10 11 12 10 10 12 12 13 11 11 12 13 12 11 15 13 15 14 13 14 13 15 15 14 14
0 1 1 1 1 1 0 -0 -0 -0 -0 4 4 6 8 9 9 10 10 10 11 10 9 8 9 10 11 10 8 8 9 9 10 13 14 13 15 16 17 14 14 17 14 13 13 14 14
-0 -0 0 1 2 2 1 0 -0 -0 -0 2 3 5 10 12 10 10 9 9 11 10 11 9 8 10 8 9 10 11 13 13 11 11 12 15 15 15 17 15 21 15 13 12 12 12 12
-1 -0 -0 1 1 2 1 1 0 -0 -0 2 2 5 9 12 10 10 10 9 9 9 10 10 10 9 8 11 14 15 16 15 15 15 14 12 14 16 18 18 15 14 17 16 15 14 11
-1 -1 -0 0 1 1 1 1 1 -0 -0 1 2 2 6 10 12 9 9 9 10 10 12 12 13 12 10 13 15 17 18 16 18 18 17 15 13 15 17 19 20 19 18 15 13 17 14
-1 -1 -0 -0 -0 -0 0 1 1 1 -0 1 3 1 5 9 8 8 10 10 8 9 11 13 14 14 13 14 15 16 16 15 18 20 20 18 17 17 16 17 16 18 18 16 18 18 18
-0 -0 -0 -0 -0 -1 -0 0 1 1 1 1 3 1 4 8 8 7 7 10 10 10 11 13 13 14 15 15 14 15 15 16 16 16 18 17 18 18 17 17 19 17 18 16 16 17 16
-0 -0 -0 -0 -0 -0 -0 -0 -0 1 1 1 4 2 3 7 8 7 6 7 7 8 10 12 12 13 12 13 14 14 17 16 16 18 16 17 15 16 15 15 17 17 17 15 15 15 16